This is the latest recevied weather packets stored in our database for station/object EA7RX-4. If no packets are shown the sender has not sent any weather packets the latest 10 day(s).
| Time | Temp. | Humidity | Pressure | Rain* | Wind** | Luminosity | Snow |
|---|---|---|---|---|---|---|---|
| 1788121203 | 26.11° C | 30% | 1017.8 hPa | 0 mm | - | 0 W/m² | - |
| 1788120603 | 26.11° C | 29% | 1017.6 hPa | 0 mm | - | 0 W/m² | - |
| 1788120003 | 26.67° C | 29% | 1017.5 hPa | 0 mm | - | 0 W/m² | - |
| 1788119403 | 26.67° C | 28% | 1017.4 hPa | 0 mm | - | 0 W/m² | - |
| 1788118803 | 26.67° C | 28% | 1017.4 hPa | 0 mm | - | 0 W/m² | - |
| 1788118203 | 26.67° C | 27% | 1017.3 hPa | 0 mm | - | 0 W/m² | - |
| 1788117603 | 27.22° C | 26% | 1017.3 hPa | 0 mm | - | 0 W/m² | - |
| 1788117003 | 27.22° C | 26% | 1017.1 hPa | 0 mm | - | 0 W/m² | - |
| 1788116403 | 27.78° C | 25% | 1017 hPa | 0 mm | - | 0 W/m² | - |
| 1788115803 | 27.78° C | 26% | 1016.9 hPa | 0 mm | - | 4 W/m² | - |
| 1788115203 | 27.78° C | 25% | 1017 hPa | 0 mm | - | 9 W/m² | - |
| 1788114603 | 28.33° C | 25% | 1016.9 hPa | 0 mm | - | 17 W/m² | - |
| 1788114003 | 28.33° C | 25% | 1016.8 hPa | 0 mm | - | 26 W/m² | - |
| 1788113403 | 28.33° C | 24% | 1016.8 hPa | 0 mm | - | 34 W/m² | - |
| 1788112803 | 28.89° C | 24% | 1016.7 hPa | 0 mm | - | 43 W/m² | - |
| 1788112203 | 28.89° C | 23% | 1016.7 hPa | 0 mm | - | 61 W/m² | - |
| 1788111603 | 28.89° C | 23% | 1017 hPa | 0 mm | - | 84 W/m² | - |
| 1788111003 | 29.44° C | 23% | 1016.7 hPa | 0 mm | - | 107 W/m² | - |
| 1788110403 | 29.44° C | 23% | 1016.9 hPa | 0 mm | - | 136 W/m² | - |
| 1788109803 | 29.44° C | 23% | 1016.9 hPa | 0 mm | - | 169 W/m² | - |
| 1788109203 | 29.44° C | 23% | 1016.8 hPa | 0 mm | - | 199 W/m² | - |
| 1788108603 | 29.44° C | 23% | 1016.8 hPa | 0 mm | - | 228 W/m² | - |
| 1788108003 | 29.44° C | 23% | 1016.7 hPa | 0 mm | - | 251 W/m² | - |
| 1788107403 | 30° C | 23% | 1016.5 hPa | 0 mm | - | 285 W/m² | - |
| 1788106803 | 30° C | 24% | 1016.6 hPa | 0 mm | - | 327 W/m² | - |
* Rain latest hour (hover to see other rain measurements)
** Current wind speed in m/s (hover to see current wind gust speed)